Flag for Germany Weather past 2 weeks in Freital, Saxony, Germany

Now
78 °F

Overcast.


Feels Like: 80 °F
Forecast: 62 / 81 °F
Wind: 3 mph from Northeast

Location: Dresden-Klotzsche

Current Time: Jul 28, 2014 at 3:54:40 PM

Latest Report: Jul 28, 2014 at 3:00 PM


Visibility: 13 mi

Pressure: 29.85 "Hg

Humidity: 64%

Dew point: 65 °F

Location of FreitalLocation

Historic Weather in Freital — Graph

°F

Freital temperature yesterday

Maximum temperature yesterday: 83 °F (at 3:00 PM)
Minimum temperature yesterday: 64 °F (at 6:00 AM)
Average temperature yesterday: 73 °F

Past Weeks' High & Low Weather Summary

 TemperatureHumidityPressure
High90 °F (Jul 20, 4:00 PM)98% (Jul 25, 6:00 AM)30.18 "Hg (Jul 25, 6:00 AM)
Low57 °F (Jul 24, 6:00 AM)25% (Jul 20, 4:00 PM)29.73 "Hg (Jul 21, 5:00 AM)
Average71 °F66%29.96 "Hg
* Reported Jul 13 2:00 PM — Jul 28 2:00 PM, Freital, Weather by CustomWeather, © 2014

Note: Actual official high and low records may vary slightly from our data, if they occured in-between our weather recording intervals... More about our weather records

Advertising

Freital weather history for previous 24 hours

 ConditionsComfort  
Time TempWeatherWind HumidityBarometerVisibility
2:00 PM
Jul 28
77 °FOvercast.3 mph69%29.87 "Hg9 mi
1:00 PM75 °FOvercast.2 mph71%29.89 "Hg9 mi
12:00 PM73 °FOvercast.2 mph79%29.90 "Hg7 mi
11:00 AM71 °FOvercast.1 mph80%29.91 "Hg7 mi
10:00 AM69 °FOvercast.2 mph82%29.92 "Hg6 mi
9:00 AM68 °FOvercast.2 mph87%29.93 "Hg5 mi
8:00 AM65 °FFog.2 mph92%29.93 "Hg3 mi
7:00 AM65 °FFog.2 mph95%29.94 "Hg2 mi
6:00 AM64 °FFog.1 mph96%29.94 "Hg1 mi
4:00 AM64 °FFog.1 mph97%29.94 "Hg1 mi
3:00 AM65 °FFog.3 mph96%29.94 "Hg3 mi
2:00 AM65 °FLow clouds.2 mph96%29.94 "Hg3 mi
1:00 AM66 °FLow clouds.2 mph95%29.95 "Hg3 mi
12:00 AM66 °FLight rain. Overcast.3 mph94%29.96 "Hg6 mi
10:00 PM
Jul 27
67 °FThundershowers. Low clouds.5 mph85%29.99 "Hg5 mi
9:00 PM71 °FOvercast.6 mph72%29.96 "Hg22 mi
8:00 PM71 °FThunderstorms. Overcast.3 mph70%29.92 "Hg22 mi
7:00 PM77 °FThundershowers. Overcast.2 mph62%29.90 "Hg22 mi
6:00 PM80 °FThundershowers. Overcast.5 mph54%29.88 "Hg19 mi
5:00 PM82 °FOvercast.3 mph49%29.87 "Hg22 mi
4:00 PM83 °FOvercast.3 mph44%29.88 "Hg22 mi
3:00 PM83 °FOvercast.3 mph44%29.90 "Hg25 mi
Weather by CustomWeather, © 2014

See weather overviewHow to use our weather pages